Weather reports worldwide

Advertisment
Olbia/Costa Smeralda, Italy (16531): temperature & dewpoint: 17.05.2019 14:00:00 - 23.05.2019 14:00:00 (CEST)Olbia/Costa Smeralda, Italy (16531): wind speed: 17.05.2019 14:00:00 - 23.05.2019 14:00:00 (CEST)Olbia/Costa Smeralda, Italy (16531): wind direction: 17.05.2019 14:00:00 - 23.05.2019 14:00:00 (CEST)Olbia/Costa Smeralda, Italy (16531): reduced air pressure: 17.05.2019 14:00:00 - 23.05.2019 14:00:00 (CEST)Olbia/Costa Smeralda, Italy (16531): visibility: 17.05.2019 14:00:00 - 23.05.2019 14:00:00 (CEST)Olbia/Costa Smeralda, Italy (16531): precipitation: 17.05.2019 14:00:00 - 23.05.2019 14:00:00 (CEST)
Date & Time tt [°C] td [°C] ff [km/h] ff [kn] dd ppp [hPa] vv [km] rr [mm]
23.05.2019 14:00:00 23,4 14,6 11 6 - 1016,8 10 -
23.05.2019 13:00:00 26,0 8,0 16 9 WNW - 10 -
23.05.2019 12:00:00 24,0 10,0 16 9 W - 10 -
23.05.2019 11:00:00 22,5 11,6 16 9 W 1017,9 10 0,0
23.05.2019 10:00:00 21,0 12,0 13 7 W - 10 -
23.05.2019 09:00:00 19,0 12,0 24 13 SW - 10 -
23.05.2019 08:00:00 18,1 11,1 22 12 WSW 1017,5 10 -
23.05.2019 07:00:00 16,0 11,0 18 10 WSW - 10 -
23.05.2019 06:00:00 15,0 10,0 18 10 WSW - 10 -
23.05.2019 05:00:00 15,5 10,1 21 11 WSW 1017,0 10 0,0
23.05.2019 04:00:00 15,0 9,0 15 8 WSW - 10 -
23.05.2019 03:00:00 15,0 9,0 13 7 SW - 10 -
23.05.2019 02:00:00 15,0 8,9 2 1 - 1017,8 10 -
23.05.2019 01:00:00 15,0 10,0 13 7 WSW - 10 -
23.05.2019 00:00:00 17,0 10,0 18 10 WSW - 10 -
22.05.2019 23:00:00 17,1 9,7 18 10 WSW 1017,3 10 0,0
22.05.2019 22:00:00 18,0 8,0 16 9 WSW - 10 -
22.05.2019 21:00:00 21,0 7,0 21 11 W - 10 -
22.05.2019 20:00:00 21,9 7,2 28 15 W 1015,8 10 -
22.05.2019 19:00:00 23,0 7,0 28 15 W - 10 -
22.05.2019 18:00:00 25,0 8,0 15 8 - - 10 -
22.05.2019 17:00:00 22,6 11,2 16 9 E 1015,8 10 0,0
22.05.2019 16:00:00 23,0 12,0 21 11 E - 10 -
22.05.2019 15:00:00 25,0 10,0 11 6 - - 10 -
22.05.2019 14:00:00 24,9 8,5 18 10 W 1016,1 10 -
22.05.2019 13:00:00 24,0 9,0 21 11 SW - 10 -
22.05.2019 12:00:00 23,0 9,0 26 14 SW - 10 -
22.05.2019 11:00:00 21,9 8,3 28 15 SW 1016,6 10 0,0
22.05.2019 10:00:00 20,0 7,0 29 16 SW - 10 -
22.05.2019 09:00:00 19,0 8,0 21 11 WSW - 10 -
22.05.2019 08:00:00 16,8 8,3 22 12 WSW 1016,7 10 -
22.05.2019 07:00:00 14,0 8,0 24 13 WSW - 10 -
22.05.2019 06:00:00 13,0 8,0 18 10 WSW - 10 -
22.05.2019 05:00:00 13,1 8,7 18 10 SW 1016,3 10 0,0
22.05.2019 04:00:00 14,0 9,0 15 8 SW - 10 -
22.05.2019 03:00:00 13,0 10,0 15 8 SW - 10 -
22.05.2019 02:00:00 13,4 9,4 13 7 WSW 1016,6 10 -
22.05.2019 01:00:00 15,0 10,0 18 10 SW - 10 -
22.05.2019 00:00:00 16,0 11,0 21 11 WSW - 10 -
21.05.2019 23:00:00 15,5 11,1 9 5 WSW 1017,0 10 0,0
21.05.2019 22:00:00 16,0 11,0 11 6 W - 10 -
21.05.2019 21:00:00 19,0 11,0 15 8 W - 10 -
21.05.2019 20:00:00 21,0 9,9 21 11 W 1015,0 10 -
21.05.2019 19:00:00 23,0 7,0 22 12 W - 10 -
21.05.2019 18:00:00 24,0 8,0 26 14 W - 10 -
21.05.2019 17:00:00 24,3 8,7 26 14 W 1014,1 10 0,0
21.05.2019 16:00:00 24,0 10,0 28 15 W - 10 -
21.05.2019 15:00:00 24,0 10,0 31 17 W - 10 -
21.05.2019 14:00:00 23,8 10,1 29 16 W 1014,3 10 -
21.05.2019 13:00:00 23,0 10,0 28 15 W - 10 -
21.05.2019 12:00:00 22,0 11,0 26 14 WSW - 10 -
21.05.2019 11:00:00 21,2 11,3 34 18 WSW 1013,5 10 0,0
21.05.2019 10:00:00 20,0 12,0 28 15 WSW - 10 -
21.05.2019 09:00:00 18,0 12,0 29 16 WSW - 10 -
21.05.2019 08:00:00 16,4 12,3 28 15 WSW 1012,8 10 -
21.05.2019 07:00:00 14,0 12,0 28 15 SW - 10 -
21.05.2019 06:00:00 14,0 12,0 22 12 SW - 10 -
21.05.2019 05:00:00 13,8 11,7 24 13 SW 1012,5 10 0,0
21.05.2019 04:00:00 14,0 11,0 21 11 WSW - 10 -
21.05.2019 03:00:00 14,0 11,0 28 15 SW - 10 -
21.05.2019 02:00:00 14,2 10,7 28 15 SW 1012,9 10 -
21.05.2019 01:00:00 15,0 10,0 24 13 WSW - 10 -
21.05.2019 00:00:00 15,0 10,0 29 16 WSW - 10 -
20.05.2019 23:00:00 14,7 10,2 24 13 SW 1012,4 10 0,0
20.05.2019 22:00:00 15,0 11,0 24 13 SW - 10 -
20.05.2019 21:00:00 16,0 11,0 24 13 SW - 10 -
20.05.2019 20:00:00 17,0 11,4 28 15 WSW 1011,2 10 -
20.05.2019 19:00:00 18,0 12,0 29 16 SW - 10 -
20.05.2019 18:00:00 18,0 13,0 26 14 SW - 10 -
20.05.2019 17:00:00 17,2 13,1 24 13 SW 1010,7 10 0,0
20.05.2019 16:00:00 16,0 13,0 34 18 SW - 10 -
20.05.2019 15:00:00 17,0 13,0 28 15 SW - 10 -
20.05.2019 14:00:00 15,9 12,7 29 16 SW 1010,1 8 -
20.05.2019 13:00:00 17,0 12,0 31 17 SW - 10 -
20.05.2019 12:00:00 19,0 11,0 41 22 WSW - 10 -
20.05.2019 11:00:00 18,7 11,2 34 18 SW 1009,1 10 0,0
20.05.2019 10:00:00 17,0 10,0 31 17 SW - 10 -
20.05.2019 09:00:00 16,0 11,0 29 16 SW - 10 -
20.05.2019 08:00:00 14,1 10,5 21 11 SW 1008,8 10 -
20.05.2019 07:00:00 12,0 11,0 13 7 WSW - 10 -
20.05.2019 06:00:00 12,0 11,0 15 8 WSW - 10 -
20.05.2019 05:00:00 12,6 10,9 13 7 WSW 1008,2 10 0,0
20.05.2019 04:00:00 12,0 10,0 8 4 SW - 10 -
20.05.2019 03:00:00 13,0 11,0 8 4 SW - 10 -
20.05.2019 02:00:00 13,8 11,2 21 11 SW 1008,7 10 -
20.05.2019 01:00:00 13,0 11,0 11 6 SW - 10 -
20.05.2019 00:00:00 13,0 11,0 8 4 SW - 10 -
19.05.2019 23:00:00 13,9 10,8 9 5 WSW 1009,3 10 0,0
19.05.2019 22:00:00 14,0 10,0 9 5 SSW - 10 -
19.05.2019 21:00:00 16,0 10,0 21 11 W - 10 -
19.05.2019 20:00:00 15,9 10,7 24 13 W 1008,2 10 -
19.05.2019 19:00:00 19,0 9,0 28 15 W - 10 -
19.05.2019 18:00:00 20,0 9,0 26 14 WSW - 10 -
19.05.2019 17:00:00 19,8 9,5 24 13 W 1007,3 10 0,0
19.05.2019 16:00:00 18,0 10,0 24 13 SW - 10 -
19.05.2019 15:00:00 19,0 9,0 34 18 W - 10 -
19.05.2019 14:00:00 16,4 12,0 22 12 WNW 1007,0 10 -
19.05.2019 13:00:00 19,0 9,0 31 17 WSW - 10 -
19.05.2019 12:00:00 20,0 9,0 29 16 WSW - 10 -
19.05.2019 11:00:00 18,2 8,9 24 13 SW 1006,5 10 0,0
19.05.2019 10:00:00 18,0 10,0 29 16 WSW - 10 -
19.05.2019 09:00:00 16,0 11,0 26 14 SW - 10 -
19.05.2019 08:00:00 15,6 11,1 21 11 WSW 1006,5 10 -
19.05.2019 07:00:00 13,0 10,0 21 11 WSW - 10 -
19.05.2019 06:00:00 14,0 10,0 22 12 WSW - 10 -
19.05.2019 05:00:00 13,7 10,3 26 14 WSW 1006,5 10 0,0
19.05.2019 04:00:00 13,0 10,0 16 9 WSW - 10 -
19.05.2019 03:00:00 14,0 11,0 16 9 WSW - 10 -
19.05.2019 02:00:00 14,3 11,6 15 8 WSW 1007,4 10 -
19.05.2019 01:00:00 14,0 12,0 13 7 WSW - 10 -
19.05.2019 00:00:00 15,0 11,0 16 9 WSW - 10 -
18.05.2019 23:00:00 15,7 11,2 15 8 W 1008,3 10 0,0
18.05.2019 22:00:00 16,0 11,0 18 10 W - 10 -
18.05.2019 21:00:00 16,0 11,0 18 10 W - 10 -
18.05.2019 20:00:00 17,4 11,0 22 12 W 1006,1 10 -
18.05.2019 19:00:00 18,0 11,0 24 13 W - 10 -
18.05.2019 18:00:00 18,0 12,0 26 14 W - 10 -
18.05.2019 17:00:00 18,9 12,8 26 14 SW 1004,9 10 0,0
18.05.2019 16:00:00 21,0 12,0 26 14 WSW - 10 -
18.05.2019 15:00:00 21,0 11,0 34 18 SW - 10 -
18.05.2019 14:00:00 20,3 11,9 35 19 SW 1003,8 10 -
18.05.2019 13:00:00 19,0 12,0 24 13 SW - 10 -
18.05.2019 12:00:00 18,0 12,0 15 8 W - 10 -
18.05.2019 11:00:00 17,1 13,1 29 16 WSW 1003,6 10 0,0
18.05.2019 10:00:00 18,0 14,0 29 16 WSW - 10 -
18.05.2019 09:00:00 16,0 13,0 29 16 SW - 10 -
18.05.2019 08:00:00 15,7 13,6 13 7 SSW 1001,7 10 -
18.05.2019 07:00:00 12,0 11,0 2 1 - - 10 -
18.05.2019 06:00:00 12,0 11,0 4 2 - - 10 -
18.05.2019 05:00:00 12,1 11,7 8 4 S 1001,2 10 0,0
18.05.2019 04:00:00 13,0 13,0 5 3 WSW - 10 -
18.05.2019 03:00:00 13,0 12,0 4 2 S - 10 -
18.05.2019 02:00:00 14,6 13,1 5 3 S 1002,6 10 -
18.05.2019 01:00:00 16,0 13,0 8 4 SSW - 10 -
18.05.2019 00:00:00 16,0 14,0 9 5 SSE - 10 -
17.05.2019 23:00:00 15,9 13,7 9 5 SE 1003,1 10 0,0
17.05.2019 22:00:00 16,0 14,0 13 7 SE - 10 -
17.05.2019 21:00:00 16,0 13,0 9 5 ESE - 10 -
17.05.2019 20:00:00 16,6 13,1 16 9 SSE 1002,7 10 -
17.05.2019 19:00:00 17,0 13,0 18 10 ESE - 10 -
17.05.2019 18:00:00 18,0 13,0 21 11 ESE - 10 -
17.05.2019 17:00:00 17,6 12,7 22 12 SE 1004,6 10 0,0
17.05.2019 16:00:00 18,0 12,0 29 16 ESE - 10 -
17.05.2019 15:00:00 19,0 13,0 26 14 E - 10 -
17.05.2019 14:00:00 18,0 11,6 28 15 E 1005,6 10 -

tt = temperature
td = dewpoint
ff = wind speed
dd = wind direction
ppp = reduced air pressure
vv = visibility
rr = precipitation

Next stations